Airport Information

KRDM - Roberts Fld Airport

KRDM 251156Z 00000KT 10SM SCT120 03/M02 A3001 RMK AO2 SLP162 T00281017 10061 20000 58022


  • General Information

  • Coordinates: N 44°15'14"/ W 121°8'59"
  • Location: N/A
  • Surveyed Elevation: 3077 MSL

Operations

Flow Name Active Runways Conditions

Green background denotes normal operations.


Common Frequencies

Callsign Frequency Position Name

More at the Document Center


Charts